Flag for U.S.A. Weather past 2 weeks in Santa Clarita, California, U.S.A.

Now
73 °F

Sunny.


Feels Like: 77 °F
Forecast: 65 / 98 °F
Wind: No wind

Location: Van Nuys Airport

Current Time: Aug 28, 2014 at 8:32:24 AM

Latest Report: Aug 28, 2014 at 7:51 AM


Visibility: 10 mi

Pressure: 29.99 "Hg

Humidity: 43%

Dew point: 49 °F

Location of Santa ClaritaLocation

Historic Weather in Santa Clarita — Graph

°F

Santa Clarita temperature yesterday

Maximum temperature yesterday: 95 °F (at 1:51 PM)
Minimum temperature yesterday: 67 °F (at 4:51 AM)
Average temperature yesterday: 81 °F

Past Weeks' High & Low Weather Summary

 TemperatureHumidityPressure
High98 °F (Aug 16, 2:51 PM)87% (Aug 14, 2:51 AM)30.02 "Hg (Aug 14, 2:51 AM)
Low62 °F (Aug 25, 6:51 AM)11% (Aug 16, 6:51 PM)29.73 "Hg (Aug 18, 3:51 PM)
Average76 °F49%29.90 "Hg
* Reported Aug 13 6:51 AM — Aug 28 6:51 AM, Santa Clarita, Weather by CustomWeather, © 2014

Note: Actual official high and low records may vary slightly from our data, if they occured in-between our weather recording intervals... More about our weather records

Advertising

Santa Clarita weather history for previous 24 hours

 ConditionsComfort  
Time TempWeatherWind HumidityBarometerVisibility
6:51 AM
Aug 28
68 °FClear.No wind55%29.98 "Hg10 mi
5:51 AM70 °FClear.No wind41%29.97 "Hg10 mi
4:51 AM70 °FClear.No wind46%29.97 "Hg10 mi
3:51 AM71 °FClear.No wind42%29.98 "Hg10 mi
2:51 AM72 °FClear.No wind35%29.98 "Hg10 mi
1:51 AM74 °FClear.3 mph32%29.99 "Hg10 mi
12:51 AM76 °FClear.No wind30%29.99 "Hg10 mi
11:51 PM
Aug 27
77 °FClear.3 mph28%30.00 "Hg10 mi
10:51 PM79 °FClear.5 mph27%29.98 "Hg10 mi
9:51 PM81 °FClear.5 mph27%29.98 "Hg10 mi
8:51 PM83 °FClear.3 mph24%29.98 "Hg10 mi
7:51 PM85 °FSunny.7 mph24%29.96 "Hg10 mi
6:51 PM88 °FSunny.8 mph22%29.95 "Hg10 mi
5:51 PM93 °FSunny.7 mph20%29.94 "Hg10 mi
4:51 PM94 °FSunny.8 mph19%29.94 "Hg10 mi
3:51 PM95 °FSunny.No wind17%29.94 "Hg10 mi
2:51 PM94 °FSunny.8 mph17%29.95 "Hg10 mi
1:51 PM95 °FSunny.8 mph18%29.97 "Hg10 mi
12:51 PM93 °FSunny.8 mph21%29.98 "Hg10 mi
11:51 AM92 °FSunny.No wind19%30.00 "Hg10 mi
10:51 AM88 °FSunny.No wind22%30.02 "Hg10 mi
9:51 AM82 °FSunny.No wind29%30.02 "Hg10 mi
8:51 AM76 °FSunny.No wind37%30.02 "Hg10 mi
Weather by CustomWeather, © 2014

See weather overviewHow to use our weather pages